"2022-03-18 00:01:00",2853765,1.44,76.13335,1.499463,0.02966482,1.48,0,0.9613333,88.66732,3.663285,0.04730985,1.06,0,-999,0,-0.1,95.3,-0.015,0.047,1.663,0.06,0,-1.052,13.58,1.763,104.0014,3.297,3.297,3.296,100,0,0,0,0.164,225.1,225.1
"2022-03-18 00:02:00",2853766,1.3,85.93512,3.192525,0.04163332,1.38,0,0.8686666,90.26669,2.568031,0.06510163,0.98,0,-999,0,-0.18,95.3,-0.105,-0.004,1.496,0.087,0,-1.053,13.58,1.7,104.0109,3.296,3.296,3.293,100,0,0,0,0.164,225.1,225.1
"2022-03-18 00:03:00",2853767,1.034,91.13243,3.480381,0.08195932,1.18,0,0.7320001,101.1964,5.633927,0.06326663,0.8,0,-999,0,-0.2,95.4,-0.119,-0.049,1.267,0.077,0,-1.053,13.58,1.388,103.9971,3.296,3.297,3.295,100,0,0,0,0.164,225.1,225.1
"2022-03-18 00:04:00",2853768,0.8726667,89.33315,2.356824,0.03623382,0.93,0,0.5740001,114.9339,5.091423,0.03611094,0.67,0,-999,0,-0.253,96.1,-0.168,-0.086,0.983,0.064,0,-1.053,13.58,1.075,104.0055,3.294,3.295,3.293,100,0,0,0,0.164,225.1,225.1
"2022-03-18 00:05:00",2853769,0.7826666,90.13434,3.051781,0.02931817,0.84,0,0.522,123.4666,0.956578,0.02833137,0.57,0,-999,0,-0.333,97,-0.237,-0.137,0.817,0.045,0,-1.055,13.59,0.888,104.0138,3.296,3.298,3.295,100,0,0,0,0.164,225.1,225.1
"2022-03-18 00:06:00",2853770,0.7106667,89.26686,2.264717,0.03749963,0.76,0,0.4386667,126.5977,3.114297,0.02418448,0.49,0,-999,0,-0.4,97.2,-0.247,-0.144,0.862,0.038,0,-1.065,13.59,0.95,104.0215,3.295,3.296,3.294,100,0,0,0,0.164,225.1,225.1
"2022-03-18 00:07:00",2853771,0.6380001,88.80003,1.469661,0.01166191,0.66,0,0.416,129.6001,1.496457,0.02524547,0.46,0,-999,0,-0.4,97.2,-0.255,-0.172,0.946,0.016,0,-1.076,13.58,0.95,104.0116,3.295,3.296,3.294,100,0,0,0,0.164,225.1,225.1
"2022-03-18 00:08:00",2853772,0.6886666,82.46632,1.927351,0.03575224,0.75,0,0.4493333,118.2684,6.124744,0.01123487,0.47,0,-999,0,-0.467,96.8,-0.283,-0.231,0.9,0.034,0,-1.076,13.59,0.95,104.0133,3.296,3.298,3.293,100,0,0,0,0.164,225.1,225.1
"2022-03-18 00:09:00",2853773,0.7373333,78.79967,2.481697,0.01526069,0.76,0,0.37,120.0007,4.589182,0.05501515,0.46,0,-999,0,-0.5,96.4,-0.284,-0.233,0.871,0.028,0,-1.076,13.59,0.888,104.0136,3.296,3.297,3.295,100,0,0,0,0.164,225.1,225.1
"2022-03-18 00:10:00",2853774,0.6579999,70.66479,3.046927,0.02737395,0.71,0,0.204,126.0461,6.73463,0.03843609,0.28,0,-999,0,-0.5,96.3,-0.302,-0.249,0.812,0.025,0,-1.08,13.59,0.825,104.0073,3.296,3.298,3.295,100,0,0,0,0.164,225.1,225.1
"2022-03-18 00:11:00",2853775,0.5566667,74.53427,3.323866,0.04452216,0.62,0,0.138,149.0077,11.66393,0.03310589,0.18,0,-999,0,-0.5,96.9,-0.37,-0.3,0.692,0.045,0,-1.096,13.59,0.763,104.005,3.293,3.296,3.293,100,0,0,0,0.164,225.1,225.1
"2022-03-18 00:12:00",2853776,0.474,70.99932,3.881426,0.01254325,0.51,0,0.07933332,187.9557,9.479757,0.02515728,0.13,0,-999,0,-0.5,97.2,-0.425,-0.368,0.617,0.029,0,-1.096,13.59,0.638,104.0029,3.295,3.298,3.294,100,0,0,0,0.164,225.1,225.1
"2022-03-18 00:13:00",2853777,0.3906667,72.53347,3.201113,0.02407395,0.44,0,0.1706667,215.6005,21.07305,0.08629148,0.29,0,-999,0,-0.5,96.6,-0.481,-0.405,0.583,0.05,0,-1.096,13.58,0.638,104.0028,3.292,3.296,3.292,100,0,0,0,0.164,225.1,225.1
"2022-03-18 00:14:00",2853778,0.4373333,58.73111,4.794434,0.01481741,0.46,0,0.2066667,229.8483,6.356067,0.03197222,0.28,0,-999,0,-0.553,95.8,-0.52,-0.452,0.492,0.037,0,-1.114,13.59,0.513,104.0037,3.296,3.296,3.292,100,0,0,0,0.164,225.1,225.1
"2022-03-18 00:15:00",2853779,0.366,73.86768,2.417917,0.02751968,0.4,0,0.1953333,267.4569,13.04521,0.008844331,0.21,0,-999,0,-0.6,95.4,-0.549,-0.449,0.583,0.039,0,-1.119,13.59,0.638,104.0014,3.296,3.296,3.294,100,0,0,0,0.164,225.1,225.1
"2022-03-18 00:16:00",2853780,0.3093333,85.00166,3.182527,0.02112397,0.33,0,0.1906667,303.3388,5.662122,0.008537496,0.21,0,-999,0,-0.6,96,-0.52,-0.443,0.487,0.06,0,-1.132,13.58,0.575,104.0021,3.295,3.297,3.292,100,0,0,0,0.164,225.1,225.1
"2022-03-18 00:17:00",2853781,0.3146666,76.86467,4.499272,0.00718022,0.33,0,0.174,287.3312,5.080878,0.01143095,0.19,0,-999,0,-0.6,96.1,-0.501,-0.431,0.337,0.065,0,-1.139,13.59,0.388,104.0092,3.296,3.296,3.292,100,0,0,0,0.164,225.1,225.1
"2022-03-18 00:18:00",2853782,0.34,59.2621,6.52578,0.01861899,0.37,0,0.256,291.4632,4.238659,0.03895297,0.34,0,-999,0,-0.6,96.2,-0.49,-0.431,0.2,0,0,-1.139,13.58,0.2,104.0018,3.294,3.295,3.293,100,0,0,0,0.164,225.1,225.1
"2022-03-18 00:19:00",2853783,0.4,48.06666,0.9979326,0.01897367,0.43,0,0.3259999,318.81,8.197036,0.01854724,0.35,0,-999,0,-0.6,95.6,-0.505,-0.45,0.2,0,0,-1.162,13.58,0.2,104.0014,3.294,3.294,3.293,100,0,0,0,0.164,225.1,225.1
"2022-03-18 00:20:00",2853784,0.4633332,44.26667,1.436112,0.01738454,0.5,0,0.372,330.533,2.704288,0.0228619,0.42,0,-999,0,-0.6,94.7,-0.565,-0.506,0.2,0,0,-1.182,13.59,0.2,104.0001,3.296,3.296,3.295,100,0,0,0,0.164,225.1,225.1
"2022-03-18 00:21:00",2853785,0.4819999,33.13327,4.601311,0.01720465,0.51,0,0.4513333,325.7984,3.409225,0.02848781,0.51,0,-999,0,-0.54,94.5,-0.563,-0.539,0.2,0,0,-1.189,13.59,0.2,104.0078,3.293,3.296,3.293,100,0,0,0,0.164,225.1,225.1
"2022-03-18 00:22:00",2853786,0.4506666,25.06756,3.150262,0.007717227,0.47,0,0.4766667,329.5996,2.984123,0.01619327,0.52,0,-999,0,-0.5,94.4,-0.512,-0.521,0.483,0.192,0,-1.202,13.58,0.7,104.0222,3.293,3.296,3.293,100,0,0,0,0.164,225.1,225.1
"2022-03-18 00:23:00",2853787,0.5013334,11.13274,2.445713,0.03964286,0.6,0,0.4893332,327.7331,1.805819,0.01236482,0.52,0,-999,0,-0.5,94.7,-0.483,-0.484,0.704,0.053,0,-1.202,13.59,0.825,104.0093,3.296,3.296,3.292,100,0,0,0,0.164,225.1,225.1
"2022-03-18 00:24:00",2853788,0.7066667,20.93427,3.234238,0.04268751,0.76,0,0.4826666,334.3991,2.751419,0.01436044,0.5,0,-999,0,-0.5,95.1,-0.474,-0.465,0.808,0.036,0,-1.219,13.59,0.888,104.0172,3.297,3.299,3.296,100,0,0,0,0.164,225.1,225.1
"2022-03-18 00:25:00",2853789,0.724,23.06687,2.204986,0.0366606,0.79,0,0.4366666,350.7332,5.958169,0.01445298,0.46,0,-999,0,-0.5,95.8,-0.48,-0.452,0.867,0.029,0,-1.225,13.58,0.888,104.0329,3.295,3.296,3.292,100,0,0,0,0.164,225.1,225.1
"2022-03-18 00:26:00",2853790,0.7646667,31.80526,5.551175,0.01820867,0.8,0,0.4473333,16.07596,9.382458,0.01339984,0.46,0,-999,0,-0.5,96.8,-0.48,-0.449,0.933,0.036,0,-1.225,13.59,1.013,104.0302,3.293,3.296,3.292,100,0,0,0,0.164,225.1,225.1
"2022-03-18 00:27:00",2853791,0.7906667,37.26673,1.569129,0.01878534,0.82,0,0.42,30.33318,1.813285,0.02221111,0.45,0,-999,0,-0.573,96.7,-0.487,-0.441,1.008,0.016,0,-1.24,13.58,1.013,104.0192,3.293,3.293,3.291,100,0,0,0,0.164,225.1,225.1
"2022-03-18 00:28:00",2853792,0.7993334,30.46664,0.7179299,0.01289272,0.82,0,0.4266666,21.26658,2.862479,0.01299572,0.45,0,-999,0,-0.6,96.3,-0.494,-0.441,0.975,0.031,0,-1.245,13.58,1.013,104.0197,3.294,3.296,3.292,100,0,0,0,0.164,225.1,225.1
"2022-03-18 00:29:00",2853793,0.7966667,34.00008,1.211185,0.020221,0.83,0,0.3773334,17.13361,3.593272,0.0290899,0.41,0,-999,0,-0.6,96,-0.501,-0.442,0.983,0.031,0,-1.245,13.59,1.013,104.023,3.295,3.297,3.294,100,0,0,0,0.164,225.1,225.1
"2022-03-18 00:30:00",2853794,0.758,28.33248,4.315165,0.03581433,0.81,0,0.2726666,13.81066,7.561301,0.02815828,0.33,0,-999,0,-0.6,95.9,-0.52,-0.446,0.95,0.046,0,-1.245,13.58,1.013,104.0342,3.296,3.297,3.293,100,0,0,0,0.164,225.1,225.1
"2022-03-18 00:31:00",2853795,0.7019999,23.86668,0.8842863,0.01939072,0.73,0,0.292,345.4725,7.559046,0.02879815,0.36,0,-999,0,-0.6,96,-0.542,-0.455,0.871,0.036,0,-1.248,13.59,0.95,104.0254,3.296,3.296,3.295,100,0,0,0,0.164,225.1,225.1
"2022-03-18 00:32:00",2853796,0.8266667,18.73318,2.174529,0.0846693,0.97,0,0.4153333,325.3161,6.078089,0.04047495,0.48,0,-999,0,-0.613,96.3,-0.561,-0.475,0.942,0.031,0,-1.263,13.58,1.013,104.0322,3.293,3.296,3.292,100,0,0,0,0.164,225.1,225.1
"2022-03-18 00:33:00",2853797,0.8966667,18.19998,1.326718,0.04496912,0.95,0,0.5266667,320.6676,2.724073,0.02521023,0.56,0,-999,0,-0.6,95.4,-0.561,-0.501,0.988,0.044,0,-1.268,13.59,1.075,104.028,3.293,3.294,3.292,100,0,0,0,0.164,225.1,225.1
"2022-03-18 00:34:00",2853798,0.8946666,18.46645,2.028634,0.03827386,0.97,0,0.5979999,312.1272,6.23747,0.05205125,0.69,0,-999,0,-0.64,94.4,-0.553,-0.498,1.1,0.055,0,-1.284,13.59,1.2,104.0301,3.296,3.296,3.292,100,0,0,0,0.164,225.1,225.1
"2022-03-18 00:35:00",2853799,1.016,11.86712,2.390251,0.03158057,1.08,0,0.8073334,309.7325,3.064987,0.07325448,0.89,0,-999,0,-0.7,94,-0.547,-0.481,1.25,0.047,0,-1.288,13.59,1.325,104.0138,3.295,3.297,3.294,100,0,0,0,0.164,225.1,225.1
"2022-03-18 00:36:00",2853800,1.095333,3.733377,1.651853,0.02390722,1.14,0,0.904,307.7999,1.514273,0.0174356,0.94,0,-999,0,-0.7,94,-0.551,-0.473,1.221,0.044,0,-1.288,13.58,1.325,104.0075,3.295,3.295,3.291,100,0,0,0,0.164,225.1,225.1
"2022-03-18 00:37:00",2853801,1.122,0.4001666,2.24491,0.01469692,1.14,0,0.9773333,306.9333,0.8534284,0.03151013,1.03,0,-999,0,-0.7,94.3,-0.586,-0.516,1.246,0.036,0,-1.291,13.58,1.325,104.0195,3.293,3.295,3.292,100,0,0,0,0.164,225.1,225.1
"2022-03-18 00:38:00",2853802,1.166667,355.6711,4.266884,0.0295898,1.24,0,1.064667,306.9333,0.9976384,0.04883533,1.16,0,-999,0,-0.7,94.7,-0.622,-0.536,1.275,0.025,0,-1.308,13.59,1.325,104.0322,3.295,3.295,3.294,100,0,0,0,0.164,225.1,225.1
"2022-03-18 00:39:00",2853803,1.282667,344.6,0.7996832,0.01878532,1.31,0,1.086667,307.8664,1.746006,0.04330768,1.17,0,-999,0,-0.713,94.8,-0.654,-0.578,1.275,0.025,0,-1.311,13.59,1.325,104.0328,3.294,3.296,3.294,100,0,0,0,0.164,225.1,225.1
"2022-03-18 00:40:00",2853804,1.190667,343.5333,0.4990941,0.03549023,1.26,0,0.9619999,307.3333,1.699466,0.08174758,1.11,0,-999,0,-0.78,94.8,-0.711,-0.625,1.271,0.039,0,-1.311,13.57,1.325,104.0289,3.292,3.294,3.292,100,0,0,0,0.164,225.1,225.1
"2022-03-18 00:41:00",2853805,1.146667,344,0.516436,0.020221,1.19,0,0.8066667,305.6008,2.823213,0.06818276,0.94,0,-999,0,-0.8,95.2,-0.744,-0.685,1.229,0.031,0,-1.311,13.58,1.263,104.0401,3.293,3.295,3.292,100,0,0,0,0.164,225.1,225.1
"2022-03-18 00:42:00",2853806,1.132,343.8,0.9796239,0.01222019,1.15,0,0.7873334,305.8666,1.746063,0.05638755,0.89,0,-999,0,-0.853,95.7,-0.807,-0.721,1.171,0.031,0,-1.311,13.58,1.2,104.0273,3.292,3.295,3.292,100,0,0,0,0.164,225.1,225.1
"2022-03-18 00:43:00",2853807,1.137333,342.2001,1.107793,0.008537491,1.15,0,0.808,302.4003,3.050496,0.05957628,0.92,0,-999,0,-0.907,96,-0.889,-0.804,1.067,0.075,0,-1.311,13.58,1.2,104.0258,3.293,3.294,3.291,100,0,0,0,0.164,225.1,225.1
"2022-03-18 00:44:00",2853808,1.030667,336.4009,3.136225,0.06180257,1.13,0,0.7440001,292.0001,4.441835,0.09464319,0.88,0,-999,0,-0.987,96.7,-0.955,-0.861,0.879,0.039,0,-1.311,13.59,0.95,104.0291,3.293,3.294,3.292,100,0,0,0,0.164,225.1,225.1
"2022-03-18 00:45:00",2853809,0.9066666,320.2656,4.233651,0.02180724,0.95,0,0.7193334,289.5998,2.823213,0.05065789,0.79,0,-999,0,-1,97.4,-1.015,-0.905,0.917,0.031,0,-1.311,13.59,0.95,104.0359,3.292,3.292,3.291,100,0,0,0,0.164,225.1,225.1
"2022-03-18 00:46:00",2853810,0.84,313.6001,1.496653,0.04472136,0.91,0,0.7173334,281.5352,4.659016,0.06903783,0.85,0,-999,0,-1.067,97.3,-1.044,-0.95,0.871,0.028,0,-1.311,13.59,0.888,104.0444,3.294,3.295,3.291,100,0,0,0,0.164,225.1,225.1
"2022-03-18 00:47:00",2853811,0.8133333,314.8,2.227039,0.04391911,0.87,0,0.6280001,278.9978,3.481931,0.03166492,0.69,0,-999,0,-1.1,97,-1.047,-0.986,0.875,0.025,0,-1.311,13.59,0.888,104.0398,3.292,3.294,3.291,100,0,0,0,0.164,225.1,225.1
"2022-03-18 00:48:00",2853812,0.728,320.9972,5.438959,0.06068498,0.81,0,0.654,288.2017,3.598675,0.06096994,0.79,0,-999,0,-1.1,96.5,-1.041,-0.976,0.867,0.029,0,-1.311,13.58,0.888,104.0388,3.295,3.295,3.291,100,0,0,0,0.164,225.1,225.1
"2022-03-18 00:49:00",2853813,0.7819999,329.6006,4.078544,0.01796293,0.82,0,0.7080001,290.5998,2.576448,0.04805553,0.79,0,-999,0,-1.1,96.2,-1.03,-0.941,0.933,0.058,0,-1.326,13.59,1.013,104.0356,3.295,3.295,3.293,100,0,0,0,0.164,225.1,225.1
"2022-03-18 00:50:00",2853814,0.7853333,337.0667,1.691614,0.03593821,0.86,0,0.7713334,293.0656,3.064188,0.04991549,0.87,0,-999,0,-1.1,96.3,-1.001,-0.922,0.992,0.029,0,-1.331,13.59,1.013,104.0424,3.294,3.296,3.293,100,0,0,0,0.164,225.1,225.1
"2022-03-18 00:51:00",2853815,0.7446666,340.0665,3.234147,0.05097276,0.82,0,0.7413332,298.0644,4.072906,0.06448427,0.86,0,-999,0,-1.1,96.2,-1.01,-0.93,0.946,0.048,0,-1.331,13.59,1.013,104.0422,3.292,3.294,3.292,100,0,0,0,0.164,225.1,225.1
"2022-03-18 00:52:00",2853816,0.6786668,339.8664,2.578197,0.01667998,0.71,0,0.7026667,295.5999,1.959395,0.04753478,0.77,0,-999,0,-1.113,95.9,-1.03,-0.976,0.887,0.032,0,-1.331,13.58,0.95,104.0358,3.294,3.294,3.289,100,0,0,0,0.164,225.1,225.1
"2022-03-18 00:53:00",2853817,0.6786665,333.8,0.7486204,0.02963482,0.74,0,0.7266667,302.0667,3.108121,0.0454117,0.85,0,-999,0,-1.173,95.6,-1.074,-1.017,0.979,0.045,0,-1.331,13.58,1.075,104.0405,3.295,3.295,3.292,100,0,0,0,0.164,225.1,225.1
"2022-03-18 00:54:00",2853818,0.776,337.0668,1.569067,0.04062839,0.85,0,0.7659999,305.1334,1.146942,0.05083306,0.85,0,-999,0,-1.2,95.4,-1.151,-1.077,1.138,0.072,0,-1.334,13.58,1.263,104.0487,3.293,3.295,3.292,100,0,0,0,0.164,225.1,225.1
"2022-03-18 00:55:00",2853819,0.8200001,332.9993,3.119739,0.02129162,0.88,0,0.8646666,306.4668,1.309791,0.04787019,0.95,0,-999,0,-1.2,95.1,-1.205,-1.127,1.196,0.095,0,-1.349,13.59,1.325,104.0298,3.296,3.296,3.291,100,0,0,0,0.164,225.1,225.1
"2022-03-18 00:56:00",2853820,0.8886665,325.0663,2.619254,0.09597684,1.07,0,0.9253333,306.0665,1.388854,0.07182075,1.05,0,-999,0,-1.267,94.9,-1.25,-1.165,1.158,0.099,0,-1.351,13.58,1.325,104.0296,3.294,3.296,3.293,100,0,0,0,0.164,225.1,225.1
"2022-03-18 00:57:00",2853821,1.096,318.0669,2.593768,0.03592587,1.14,0,1.135333,305.0668,1.611113,0.07419495,1.28,0,-999,0,-1.3,94.9,-1.269,-1.202,1.4,0.069,0,-1.351,13.58,1.513,104.0331,3.293,3.295,3.291,100,0,0,0,0.164,225.1,225.1
"2022-03-18 00:58:00",2853822,1.254667,313.9999,1.548975,0.07116804,1.38,0,1.270667,304.6006,2.550267,0.06717804,1.46,0,-999,0,-1.3,94.6,-1.273,-1.224,1.583,0.05,0,-1.351,13.58,1.638,104.0426,3.293,3.293,3.292,100,0,0,0,0.164,225.1,225.1
"2022-03-18 00:59:00",2853823,1.316667,315.7333,1.730632,0.0629991,1.42,0,1.138,307.0666,1.913586,0.09375144,1.31,0,-999,0,-1.3,94.8,-1.251,-1.2,1.588,0.052,0,-1.359,13.59,1.638,104.0432,3.293,3.293,3.292,100,0,0,0,0.164,225.1,225.1
"2022-03-18 01:00:00",2853824,1.466,317.8667,0.805535,0.07657674,1.55,0,1.200667,307.3333,1.349901,0.04959388,1.26,0,-999,0,-1.3,95.3,-1.246,-1.177,1.6,0.044,0,-1.372,13.58,1.7,104.0425,3.292,3.295,3.292,100,0,0,0,0.164,225.1,225.1
"2022-03-18 01:01:00",2853825,1.628,313.2667,0.9978346,0.02227103,1.66,0,1.182667,303.0683,2.930728,0.07047142,1.27,0,-999,0,-1.3,95.8,-1.181,-1.122,1.629,0.039,0,-1.374,13.58,1.7,104.049,3.292,3.295,3.292,100,0,0,0,0.164,225.1,225.1
"2022-03-18 01:02:00",2853826,1.547333,314.8667,1.024257,0.04090096,1.63,0,1.082667,304.8003,1.681107,0.04434211,1.17,0,-999,0,-1.3,96.2,-1.146,-1.104,1.517,0.042,0,-1.374,13.58,1.575,104.0437,3.292,3.295,3.291,100,0,0,0,0.164,225.1,225.1
"2022-03-18 01:03:00",2853827,1.42,315.2,0.9091658,0.0640833,1.5,0,1.018,308.5333,0.7179299,0.07695885,1.13,0,-999,0,-1.3,96.8,-1.181,-1.127,1.488,0.044,0,-1.374,13.58,1.575,104.0519,3.294,3.296,3.292,100,0,0,0,0.164,225.1,225.1
"2022-03-18 01:04:00",2853828,1.278,313.8667,0.4990941,0.01833028,1.3,0,0.6946667,306.0667,2.791972,0.1212637,0.9,0,-999,0,-1.3,96.7,-1.181,-1.123,1.396,0.039,0,-1.374,13.58,1.45,104.0572,3.293,3.296,3.293,100,0,0,0,0.164,225.1,225.1
"2022-03-18 01:05:00",2853829,1.217333,314.2,0.9094886,0.03065217,1.25,0,0.5126666,305.9349,3.58373,0.04567518,0.58,0,-999,0,-1.213,96.7,-1.145,-1.069,1.271,0.05,0,-1.374,13.57,1.388,104.0571,3.292,3.294,3.291,100,0,0,0,0.164,225.1,225.1
"2022-03-18 01:06:00",2853830,1.109333,313.6001,1.496588,0.02954468,1.17,0,0.5133334,294.998,4.589482,0.05120764,0.59,0,-999,0,-1.213,97,-1.145,-1.069,1.233,0.039,0,-1.374,13.58,1.263,104.059,3.292,3.294,3.292,100,0,0,0,0.164,225.1,225.1
"2022-03-18 01:07:00",2853831,1.075333,313.9995,3.306353,0.04240545,1.18,0,0.5319999,301.9445,6.122037,0.07591224,0.72,0,-999,0,-1.2,97.6,-1.163,-1.099,1.188,0.041,0,-1.374,13.59,1.263,104.0618,3.292,3.294,3.291,100,0,0,0,0.164,225.1,225.1
"2022-03-18 01:08:00",2853832,1.052667,316.5345,3.666872,0.01436047,1.08,0,0.4613333,302.2664,4.609869,0.04470148,0.55,0,-999,0,-1.227,97.6,-1.19,-1.132,1.179,0.049,0,-1.374,13.59,1.263,104.0437,3.295,3.295,3.292,100,0,0,0,0.164,225.1,225.1
"2022-03-18 01:09:00",2853833,1.048,310.5333,0.7179299,0.03081126,1.12,0,0.4013334,298.0009,3.776612,0.0571392,0.48,0,-999,0,-1.253,97.4,-1.232,-1.158,1.121,0.028,0,-1.374,13.59,1.138,104.0471,3.295,3.296,3.292,100,0,0,0,0.164,225.1,225.1
"2022-03-18 01:10:00",2853834,0.9833333,309.3999,0.9520664,0.03025814,1.02,0,0.272,287.8031,5.609476,0.04003332,0.34,0,-999,0,-1.293,97.9,-1.256,-1.196,1.058,0.028,0,-1.374,13.59,1.075,104.0599,3.293,3.295,3.293,100,0,0,0,0.164,225.1,225.1
"2022-03-18 01:11:00",2853835,0.8206666,314,1.15485,0.05994071,0.9,0,0.1493333,299.7273,13.17312,0.0259401,0.22,0,-999,0,-1.3,98.4,-1.265,-1.229,0.958,0.031,0,-1.393,13.59,1.013,104.0648,3.294,3.296,3.293,100,0,0,0,0.164,225.1,225.1
"2022-03-18 01:12:00",2853836,0.66,311.4661,1.892337,0.04381781,0.72,0,0.1413333,315.4746,9.895528,0.03499841,0.2,0,-999,0,-1.3,98.8,-1.289,-1.246,0.825,0.065,0,-1.394,13.59,0.95,104.0688,3.294,3.295,3.292,100,0,0,0,0.164,225.1,225.1
"2022-03-18 01:13:00",2853837,0.5853334,319.4,2.416459,0.01087301,0.61,0,0.1006667,353.4541,10.3176,0.0148174,0.13,0,-999,0,-1.32,98.9,-1.318,-1.268,0.8,0.031,0,-1.394,13.59,0.825,104.0646,3.295,3.296,3.293,100,0,0,0,0.164,225.1,225.1
"2022-03-18 01:14:00",2853838,0.5493333,325.4,1.019565,0.02594011,0.6,0,0.1753333,351.0646,3.712826,0.03263263,0.23,0,-999,0,-1.387,98.3,-1.336,-1.3,0.679,0.059,0,-1.414,13.59,0.763,104.0677,3.292,3.295,3.292,100,0,0,0,0.164,225.1,225.1
"2022-03-18 01:15:00",2853839,0.69,325.2,0.9798236,0.02422119,0.72,0,0.2966667,343.3958,4.077099,0.01813529,0.32,0,-999,0,-1.4,97.9,-1.336,-1.305,0.762,0.032,0,-1.417,13.59,0.825,104.0714,3.292,3.295,3.292,100,0,0,0,0.164,225.1,225.1
"2022-03-18 01:16:00",2853840,0.6346667,325.6667,0.7883458,0.05044689,0.7,0,0.2113334,349.8669,2.390579,0.03757069,0.29,0,-999,0,-1.4,97.3,-1.336,-1.305,0.75,0.025,0,-1.418,13.59,0.763,104.0542,3.291,3.296,3.291,100,0,0,0,0.164,225.1,225.1
"2022-03-18 01:17:00",2853841,0.5086666,324.5336,2.729212,0.02093375,0.54,0,0.1566667,10.08258,13.17958,0.005962844,0.17,0,-999,0,-1.4,97,-1.35,-1.297,0.633,0.053,0,-1.433,13.58,0.7,104.0408,3.293,3.295,3.292,100,0,0,0,0.164,225.1,225.1
"2022-03-18 01:18:00",2853842,0.43,327.4655,3.518644,0.02065591,0.45,0,0.144,42.66658,1.954893,0.01925271,0.16,0,-999,0,-1.4,96.5,-1.382,-1.305,0.513,0.046,0,-1.437,13.59,0.575,104.047,3.293,3.293,3.292,100,0,0,0,0.164,225.1,225.1
"2022-03-18 01:19:00",2853843,0.2866667,340.5976,5.016368,0.04584999,0.35,0,0.1213333,71.74191,14.58037,0.05110338,0.23,0,-999,0,-1.4,96.1,-1.338,-1.305,0.308,0.093,0,-1.457,13.59,0.45,104.0577,3.292,3.294,3.291,100,0,0,0,0.164,225.1,225.1
"2022-03-18 01:20:00",2853844,0.1693334,25.93873,16.29101,0.009977756,0.19,0,0.2946666,71.39999,6.690655,0.02305549,0.33,0,-999,0,-1.4,96.2,-1.254,-1.269,0.2,0,0,-1.46,13.59,0.2,104.0578,3.296,3.296,3.292,100,0,0,0,0.164,225.1,225.1
"2022-03-18 01:21:00",2853845,0.2806667,84.91078,16.24128,0.07084882,0.4,0,0.4473333,95.23038,9.525099,0.08354373,0.58,0,-999,0,-1.28,95.7,-1.083,-1.184,0.2,0,0,-1.464,13.58,0.2,104.0578,3.293,3.295,3.293,100,0,0,0,0.164,225.1,225.1
"2022-03-18 01:22:00",2853846,0.4986667,113.0013,2.94331,0.05097276,0.59,0,0.7053334,112.466,3.180247,0.07410503,0.83,0,-999,0,-1.107,94.7,-0.88,-1.037,0.333,0.228,0,-1.48,13.58,0.888,104.0504,3.291,3.294,3.291,100,0,0,0,0.164,225.1,225.1
"2022-03-18 01:23:00",2853847,0.788,119,3.68734,0.06441535,0.87,0,0.978,119.6674,3.359611,0.1386218,1.16,0,-999,0,-1.027,94.7,-0.789,-0.881,0.867,0.029,0,-1.48,13.59,0.888,104.0465,3.293,3.294,3.291,100,0,0,0,0.164,225.1,225.1
"2022-03-18 01:24:00",2853848,0.8926667,115.5326,3.40312,0.03065216,0.96,0,1.288667,121.6666,1.299664,0.04924316,1.36,0,-999,0,-1.013,94.8,-0.781,-0.756,0.883,0.036,0,-1.48,13.58,0.95,104.0356,3.294,3.295,3.292,100,0,0,0,0.164,225.1,225.1
"2022-03-18 01:25:00",2853849,0.9766667,120.7331,2.719465,0.04526464,1.03,0,1.203333,123.4664,2.4728,0.04756284,1.32,0,-999,0,-1,94.9,-0.786,-0.742,0.8,0.031,0,-1.48,13.59,0.825,104.021,3.294,3.295,3.294,100,0,0,0,0.164,225.1,225.1
"2022-03-18 01:26:00",2853850,0.8806667,124.9333,0.8537723,0.01339982,0.9,0,1.054667,125.7333,1.236455,0.05852255,1.15,0,-999,0,-1,95.3,-0.858,-0.78,0.775,0.025,0,-1.48,13.58,0.825,104.0301,3.293,3.295,3.291,100,0,0,0,0.164,225,225.1
"2022-03-18 01:27:00",2853851,0.846,119.9993,4.178965,0.01854724,0.89,0,0.9573333,128.2666,1.123494,0.06147809,1.09,0,-999,0,-1.047,96,-0.93,-0.854,0.921,0.072,0,-1.48,13.58,1.013,104.043,3.292,3.293,3.292,100,0,0,0,0.164,225.1,225.1
"2022-03-18 01:28:00",2853852,0.8106667,114.6666,1.192292,0.02694851,0.86,0,0.972,129.6666,1.074885,0.03902135,1.04,0,-999,0,-1.1,96.9,-1.022,-0.952,0.938,0.047,0,-1.48,13.58,1.013,104.0453,3.292,3.293,3.291,100,0,0,0,0.164,225.1,225.1
"2022-03-18 01:29:00",2853853,0.8326666,116.2668,2.694815,0.02112397,0.87,0,1.072,129.8,0.9092734,0.01469697,1.1,0,-999,0,-1.2,97.6,-1.076,-1.008,0.992,0.044,0,-1.48,13.59,1.075,104.0428,3.293,3.294,3.292,100,0,0,0,0.164,225,225.1
"2022-03-18 01:30:00",2853854,0.8560001,106.7317,2.953649,0.01496664,0.88,0,1.070667,131.4667,1.309642,0.03275501,1.13,0,-999,0,-1.2,97.7,-1.096,-1.04,1.079,0.028,0,-1.48,13.58,1.138,104.0382,3.294,3.294,3.29,100,0,0,0,0.164,225,225.1
"2022-03-18 01:31:00",2853855,0.8793333,105.8662,2.940811,0.05555378,0.99,0,1.062667,134.0667,1.123756,0.01691814,1.08,0,-999,0,-1.22,97.4,-1.128,-1.062,1.175,0.031,0,-1.48,13.59,1.2,104.0387,3.294,3.295,3.292,100,0,0,0,0.164,225,225.1
"2022-03-18 01:32:00",2853856,0.9919999,112.0666,1.12332,0.008326655,1.01,0,1.060667,132.1333,0.8845076,0.02293956,1.1,0,-999,0,-1.3,97.2,-1.163,-1.086,1.15,0.034,0,-1.48,13.59,1.2,104.0332,3.293,3.294,3.292,100,0,0,0,0.164,225,225
"2022-03-18 01:33:00",2853857,1.034,119.4003,2.470937,0.03860916,1.08,0,0.9739999,134.2668,1.842741,0.03592584,1.03,0,-999,0,-1.3,97.1,-1.182,-1.113,1.188,0.025,0,-1.477,13.58,1.2,104.0133,3.292,3.294,3.291,100,0,0,0,0.164,225,225
"2022-03-18 01:34:00",2853858,1.104,125.2,0.748359,0.01993322,1.15,0,0.89,137.4001,1.404829,0.03777124,0.95,0,-999,0,-1.3,96.9,-1.146,-1.087,1.213,0.034,0,-1.476,13.57,1.263,104.0208,3.291,3.292,3.289,100,0,0,0,0.164,225,225
"2022-03-18 01:35:00",2853859,1.057333,123.0668,1.569004,0.02015499,1.1,0,0.8166667,143.7988,3.448244,0.04613988,0.9,0,-999,0,-1.3,97.3,-1.106,-1.071,1.163,0.031,0,-1.473,13.59,1.2,104.0384,3.292,3.293,3.291,100,0,0,0,0.164,225,225
"2022-03-18 01:36:00",2853860,0.942,120.4001,2.550651,0.05764258,1.04,0,0.6573334,148.6655,2.796321,0.07775746,0.75,0,-999,0,-1.3,97.2,-1.113,-1.069,1.117,0.044,0,-1.473,13.58,1.2,104.0432,3.292,3.293,3.292,100,0,0,0,0.164,225,225
"2022-03-18 01:37:00",2853861,0.86,124.9331,1.842635,0.02449489,0.9,0,0.4566666,156.6693,4.782914,0.02328566,0.5,0,-999,0,-1.3,96.9,-1.124,-1.055,0.988,0.038,0,-1.465,13.59,1.075,104.0423,3.291,3.295,3.291,100,0,0,0,0.164,225,225
"2022-03-18 01:38:00",2853862,0.7720001,126.1338,2.1867,0.07175884,0.89,0,0.3626667,177.134,7.243304,0.03213858,0.43,0,-999,0,-1.22,97.4,-1.108,-1.058,0.829,0.07,0,-1.462,13.59,0.95,104.0473,3.292,3.294,3.291,100,0,0,0,0.164,225,225
"2022-03-18 01:39:00",2853863,0.6206666,118.3342,3.025262,0.02619584,0.67,0,0.3253333,196.1316,4.223802,0.03981066,0.41,0,-999,0,-1.2,98.2,-1.133,-1.083,0.729,0.031,0,-1.468,13.58,0.763,104.0479,3.291,3.294,3.291,100,0,0,0,0.164,225,225
"2022-03-18 01:40:00",2853864,0.5466667,108.659,5.335311,0.04189935,0.61,0,0.4213333,195.2335,9.99501,0.01627541,0.46,0,-999,0,-1.213,98.5,-1.172,-1.127,0.667,0.031,0,-1.476,13.58,0.7,104.0452,3.293,3.293,3.288,100,0,0,0,0.164,225,225
"2022-03-18 01:41:00",2853865,0.494,98.26853,4.202472,0.05003998,0.59,0,0.3313333,209.3664,10.7479,0.03913509,0.41,0,-999,0,-1.233,98.4,-1.197,-1.151,0.596,0.029,0,-1.48,13.59,0.638,104.0254,3.293,3.294,3.292,100,0,0,0,0.164,225,225